If you wish to contribute or participate in the discussions about articles you are invited to join SKYbrary as a registered user

 Actions

Ain el Beida Airport

From SKYbrary Wiki

DAUU
Airport
ICAO: DAUU – IATA: OGX
Summary
Name Ain el Beida Airport
Region Africa
Territory Algeria DZ.gif
Location , Ouargla
Serving Ouargla
Elevation 149.962 m
492 ft
492 ft149.962 m
Type medium airport
Coordinates 31° 55' 2.00" N, 5° 24' 46.00" E
Runways
Designator Length Width Surface ROPS
2/20 3000 m9,842.52 ft
45 m147.638 ft
ASP /
18/36 3100 m10,170.604 ft
45 m147.638 ft
ASP /


METAR
Observation DAUU 261100Z 34011KT CAVOK 28/08 Q1015
Station Ouargla
Date/Time 26 September 2020 11:00:00
Wind direction 340°
Wind speed 11 kts
Lowest cloud amount clouds and visibility OK
Temperature 28°C
Dew point 8°C
Humidity 28%
QNH 1015 hPa
Weather condition n/a